FW0790 Weather Reports


Display with metric or nautical units.
time (UTC)temp
F
wind
direction
speed
MPH
gust
MPH
rain 1hr
in
rain 24hr
in
rain mn
in
humidity
%
barometer
mb
20260506133016 60 217 0.0 0.0 0.00 0.00 0.00 72 1002.4
20260506131510 60 221 0.0 0.0 0.00 0.00 0.00 73 1002.4
20260506130010 59 191 0.0 0.0 0.00 0.00 0.00 73 1002.4
20260506124508 59 175 0.0 0.0 0.00 0.00 0.00 73 1002.3
20260506123008 60 222 0.0 0.0 0.00 0.00 0.00 74 1002.4
20260506121507 59 171 0.0 0.0 0.00 0.00 0.00 73 1002.4
20260506120007 58 202 0.0 0.0 0.00 0.00 0.00 74 1002.5
20260506114522 59 190 0.0 0.0 0.00 0.00 0.00 75 1002.3
20260506113006 59 236 0.0 0.0 0.00 0.00 0.00 73 1002.4
20260506111505 59 263 0.0 0.0 0.00 0.00 0.00 74 1002.4
20260506110005 60 194 0.0 0.0 0.00 0.00 0.00 71 1002.3
20260506104502 60 207 0.0 0.0 0.00 0.00 0.00 75 1002.3
20260506103002 59 192 0.0 0.0 0.00 0.00 0.00 77 1002.4
20260506101500 60 194 0.0 0.0 0.00 0.00 0.00 75 1002.4
20260506100114 58 170 0.0 0.0 0.00 0.00 0.00 78 1002.5
20260506094557 58 222 0.0 0.0 0.00 0.00 0.00 78 1002.4
20260506093058 59 193 0.0 0.0 0.00 0.00 0.00 80 1002.2
20260506091557 58 225 0.0 0.0 0.00 0.00 0.00 81 1002.1
20260506090053 58 205 0.0 0.0 0.00 0.00 0.00 83 1002.1
20260506084548 57 171 0.0 0.0 0.00 0.00 0.00 85 1002.1
20260506083046 56 196 0.0 0.0 0.00 0.00 0.00 87 1002.0
20260506081545 55 204 0.0 0.0 0.00 0.00 0.00 87 1002.0
20260506073040 54 245 0.0 0.0 0.00 0.00 0.00 87 1001.9
20260506071536 54 196 0.0 0.0 0.00 0.00 0.00 86 1002.0
20260506061532 53 196 0.0 0.0 0.00 0.00 0.00 86 1001.8
20260506044530 52 209 0.0 0.0 0.00 0.00 0.00 82 1001.8
20260506043022 52 205 0.0 0.0 0.00 0.00 0.00 82 1001.9
20260506041519 53 193 0.0 0.0 0.00 0.00 0.00 82 1001.8
20260506040019 53 193 0.0 0.0 0.00 0.00 0.00 82 1001.7
20260506034519 52 232 0.0 0.0 0.00 0.00 0.00 82 1001.7
20260506033021 52 244 0.0 0.0 0.00 0.00 0.00 82 1001.8
20260506031528 53 201 0.0 0.0 0.00 0.00 0.00 83 1001.7
20260506030040 53 189 0.0 0.0 0.00 0.00 0.00 82 1001.8
20260506024524 53 290 0.0 0.0 0.00 0.00 0.00 82 1001.8
20260506023014 53 208 0.0 0.0 0.00 0.00 0.00 82 1001.9
20260506021513 53 177 0.0 0.0 0.00 0.00 0.00 82 1002.0
20260506020012 53 165 0.0 0.0 0.00 0.00 0.00 82 1002.1
20260506014511 53 184 0.0 0.0 0.00 0.00 0.00 82 1002.1
20260506013009 53 184 0.0 0.0 0.00 0.00 0.00 82 1002.3
20260506011508 53 220 0.0 0.0 0.00 0.00 0.00 82 1002.3
20260506010007 53 188 0.0 0.0 0.00 0.00 0.00 82 1002.5
20260506004512 52 161 0.0 0.0 0.00 0.00 0.00 83 1002.6
20260506003004 52 189 0.0 0.0 0.00 0.00 0.00 83 1002.6
20260506001502 52 183 0.0 0.0 0.00 0.00 0.00 83 1002.7
20260506000107 52 182 0.0 0.0 0.00 0.00 0.00 84 1002.8
20260505234601 52 182 0.0 0.0 0.00 0.00 0.00 84 1002.9
20260505233120 52 183 0.0 0.0 0.00 0.00 0.00 84 1003.2
20260505231556 52 183 0.0 0.0 0.00 0.00 0.00 84 1003.2
20260505230055 52 183 0.0 0.0 0.00 0.00 0.00 84 1003.4
20260505224553 52 183 0.0 0.0 0.00 0.00 0.00 84 1003.5
20260505223052 53 183 0.0 0.0 0.00 0.00 0.00 84 1003.5
20260505221600 53 183 0.0 0.0 0.00 0.00 0.00 84 1003.6
20260505220050 53 183 0.0 0.0 0.00 0.00 0.00 84 1003.7
20260505214548 53 183 0.0 0.0 0.00 0.00 0.00 85 1003.8
20260505213049 53 183 0.0 0.0 0.00 0.00 0.00 85 1003.9
20260505211547 53 183 0.0 0.0 0.00 0.00 0.00 85 1003.8
20260505210048 53 183 0.0 0.0 0.00 0.00 0.00 85 1003.9
20260505204545 53 183 0.0 0.0 0.00 0.00 0.00 85 1004.1
20260505203050 53 183 0.0 0.0 0.00 0.00 0.00 85 1004.1
20260505201547 53 183 0.0 0.0 0.00 0.00 0.00 86 1004.2
20260505200045 53 184 0.0 0.0 0.00 0.00 0.00 86 1004.2
20260505194549 54 184 0.0 0.0 0.00 0.00 0.00 86 1004.1
20260505193102 54 184 0.0 0.0 0.00 0.00 0.00 86 1004.1
20260505191543 54 184 0.0 0.0 0.00 0.00 0.00 86 1004.0
20260505190046 55 227 0.0 0.0 0.00 0.00 0.00 85 1003.9
20260505184542 55 218 0.0 0.0 0.00 0.00 0.00 85 1003.9
20260505183043 55 218 0.0 0.0 0.00 0.00 0.00 85 1003.9
20260505181541 55 218 0.0 0.0 0.00 0.00 0.00 85 1003.9
20260505180044 55 218 0.0 0.0 0.00 0.00 0.00 85 1003.9
20260505174540 55 219 0.0 0.0 0.00 0.00 0.00 86 1003.9
20260505173039 55 209 0.0 0.0 0.00 0.00 0.00 86 1004.0
20260505171546 55 244 0.0 0.0 0.00 0.00 0.00 85 1004.0
20260505170040 56 236 0.0 0.0 0.00 0.00 0.00 86 1003.9
20260505164541 56 214 0.0 0.0 0.00 0.00 0.00 86 1004.0
20260505163041 56 211 0.0 0.0 0.00 0.00 0.00 86 1004.1
20260505161537 56 178 0.0 0.0 0.00 0.00 0.00 86 1004.1
20260505153044 58 115 0.0 0.0 0.00 0.00 0.00 84 1004.0
20260505151537 60 168 0.0 0.0 0.00 0.00 0.00 79 1004.0